Погода в Госпорте

Великобритания     50°47′51″N   1°07′24″W
темп.,
°C
ветер,
м/с
пор.,
м/с
влажн.,
%
обл.,
%
осадки,
мм/ч
давл.,
гПа
погр.,
м
25 февраля, чт
чт2500:00+10ююз91583100 0.0 1022342
03:00+9зюз81291100 0.0 1023337
06:00+9зюз3491100 0.0 102482
09:00+9зсз4691100 0.4 1026150
12:00+9сз4586100 0.9 1028182
15:00+10з347499 0.1 1029354
18:00+9сз577599 0.1 1030139
21:00+7сз587516 0.0 1033248
26 февраля, пт
пт2600:00+6ссз46838 0.0 1034207
03:00+5ссз45830 0.0 1035163
06:00+5с45820 0.0 1036172
09:00+6с23780 0.0 1037165
12:00+8ссв12680 0.0 1038266
15:00+9юз12640 0.0 1037399
18:00+8з34730 0.0 103860
21:00+7зсз23780 0.0 103959
27 февраля, сб
сб2700:00+7ссз22760 0.0 104051
03:00+6ссз34770 0.0 1040106
06:00+5с34790 0.0 1040133
09:00+6ссв23780 0.0 1041149
12:00+9св12760 0.0 1041265
15:00+9всв13730 0.0 1040328
18:00+8ссв23770 0.0 103925
21:00+7ссв44760 0.0 103992
28 февраля, вс
вс2800:00+6св45790 0.0 1039152
03:00+6св46810 0.0 1038216
06:00+5св57840 0.0 1037239
09:00+6всв68840 0.0 1037334
12:00+8всв58790 0.0 1037506
15:00+9всв58760 0.0 1034354
18:00+8св712860 0.0 1033443
21:00+6всв813893 0.0 1034546
1 марта, пн
пн100:00+6всв812873 0.0 1034462
03:00+6всв7118811 0.0 1032462
06:00+5всв7118913 0.0 1031460
09:00+6всв811878 0.0 1031537
12:00+8в811798 0.0 1030698
15:00+8в811750 0.0 1028589
18:00+8всв712800 0.0 1027389
21:00+7всв813860 0.0 1028439